ONEWEB-0387, 49313

Orbit data source: Space-Track

ONEWEB-0387, 49313 is a payload satellite owned by One Web (NAA) (UK) in LEO that was launched on Thu, 14 Oct 2021 UTC via a SOYUZ-2-1B launch vehicle from the Vostochny Cosmodrome (VOSTO). Payload-class satellites include a variety of spacecraft equipped with specific instruments for various scientific and technological missions. These include communications satellites like Starlink; space stations such as the ISS; scientific satellites like the Hubble; Earth observation satellites from companies like Planet Labs, Umbra, and HawkEye 360; GPS; miniature CubeSats for education and research; and military/defense satellites.

Loading next visibility...
Identifier
49313, 2021-090AL
Orbit
LEO
Country
Flag of UKUK
Related business
Manufacturer
One Web
Mission
Operational Commercial Communications
Bus & Motor
ARROW, Unknown motor
Mass
148 kg wet, ~140 kg dry
Launch date (UTC)
2021-10-14 (5 years ago)
Launch vehicle
SOYUZ-2-1B
Launch site
Vostochny Cosmodrome (VOSTO)
Object type
Payload
Rocket body
Debris
Shape & HBR
Trap Box + 2 Pan, 6.7 m
Radar Cross Section
3.464 m², Large (>1 m²)

Expand to show TLE details & history
Last TLE update: 2 days ago

TLE from 2 days ago
0 ONEWEB-0387
1 49313U 21090AL  26171.32222172  .00000025  00000-0  28717-4 0  9996
2 49313  87.9185 273.8279 0002285  94.4378 265.7017 13.20772555230235
Epoch: 2026-06-20T07:43Z
TLE epoch observation values (Epoch: 2026-06-20T07:43:59.956Z)
Latitude
0.00003°
Longitude
-110.71042°
Altitude
1,184.804 km
Speed
7.261 km/s
True Right ascension
18h 15m 18s
True Declination
0° 00' 00"
Sunlit
Object was in full shadow at epoch
Visualization orbit readout
Latitude
Unknown
Longitude
Unknown
Altitude
Unknown
Speed
Unknown
Apparent Right ascension
Unknown
Apparent Declination
Unknown
Sunlit
N/A
Visualization observer readout
Local Sidereal Time
21:35:49
Azimuth
Unknown
Elevation
Unknown
Doppler factor
Unknown
Orbital elements
Apogee altitude
1,180.601 km
Perigee altitude
1,177.148 km
Semi-major axis
7,557.012 km
Eccentricity
0.00023
Inclination
87.9185°
RAAN
273.8279°
Arg. of periapsis
94.4378°
True anomaly
265.67559°
Mean anomaly
265.7017°
Eccentric anomaly
265.68864°
Mean motion
3.30383 °/min
Orbital period
108.96 mins
BSTAR
0.000028717
Loading maneuver chart data...
Computing Atmospheric mass density...
Loading historical data...
Loading historical data...
Loading historical data...
Loading historical data...
Loading historical data...
Loading historical data...
Loading historical data...

Documentation

Showing up to 5 results
|